FW3613 Weather Reports


Display with metric or nautical units.
time (UTC)temp
F
wind
direction
speed
MPH
gust
MPH
rain 1hr
in
rain 24hr
in
rain mn
in
humidity
%
barometer
mb
20260906205532 75 315 2.0 6.0 0.00 0.03 0.03 34 1011.7
20260906205034 75 285 1.0 8.0 0.00 0.03 0.03 34 1011.8
20260906204532 75 323 4.0 8.0 0.00 0.03 0.03 35 1011.9
20260906204031 75 308 2.0 7.0 0.00 0.03 0.03 34 1011.9
20260906203530 75 302 2.0 8.0 0.00 0.03 0.03 35 1012.0
20260906203030 74 309 3.0 8.0 0.00 0.03 0.03 36 1012.0
20260906202528 74 307 3.0 9.0 0.00 0.03 0.03 35 1012.0
20260906202028 74 316 3.0 9.0 0.00 0.03 0.03 34 1012.1
20260906201528 74 306 3.0 8.0 0.00 0.03 0.03 34 1012.1
20260906201028 74 305 3.0 8.0 0.00 0.03 0.03 34 1012.1
20260906200527 74 319 3.0 8.0 0.00 0.03 0.03 34 1012.2
20260906200027 74 335 3.0 8.0 0.00 0.03 0.03 33 1012.3
20260906195526 74 326 2.0 8.0 0.00 0.03 0.03 34 1012.3
20260906195026 74 313 3.0 8.0 0.00 0.03 0.03 35 1012.3
20260906194524 73 307 3.0 8.0 0.00 0.03 0.03 35 1012.4
20260906194024 73 280 4.0 9.0 0.00 0.03 0.03 36 1012.4
20260906193523 73 321 3.0 6.0 0.00 0.03 0.03 36 1012.4
20260906193022 73 351 3.0 7.0 0.00 0.03 0.03 36 1012.6
20260906192521 73 333 2.0 7.0 0.00 0.03 0.03 37 1012.6
20260906192019 72 316 2.0 8.0 0.00 0.03 0.03 37 1012.7
20260906191519 72 316 3.0 8.0 0.00 0.03 0.03 37 1012.8
20260906191018 71 325 2.0 7.0 0.00 0.03 0.03 39 1012.9
20260906190518 71 330 2.0 8.0 0.00 0.03 0.03 38 1013.0
20260906190019 71 342 2.0 8.0 0.00 0.03 0.03 39 1013.1
20260906185518 71 314 3.0 7.0 0.00 0.03 0.03 38 1013.1
20260906185016 71 326 3.0 7.0 0.00 0.03 0.03 38 1013.2
20260906184514 70 315 2.0 5.0 0.00 0.03 0.03 40 1013.2
20260906184012 70 315 1.0 6.0 0.00 0.03 0.03 40 1013.4
20260906183512 70 297 4.0 6.0 0.00 0.03 0.03 39 1013.4
20260906183016 70 277 3.0 10.0 0.00 0.03 0.03 41 1013.5
20260906182512 70 309 4.0 10.0 0.00 0.03 0.03 40 1013.5
20260906182010 70 320 2.0 7.0 0.00 0.03 0.03 40 1013.6
20260906181510 70 306 1.0 7.0 0.00 0.03 0.03 39 1013.6
20260906181008 70 308 2.0 7.0 0.00 0.03 0.03 40 1013.6
20260906180507 69 313 2.0 7.0 0.00 0.03 0.03 40 1013.7
20260906180006 69 342 1.0 6.0 0.00 0.03 0.03 43 1013.7
20260906175506 69 322 2.0 5.0 0.00 0.03 0.03 43 1013.7
20260906175007 69 308 0.0 5.0 0.00 0.03 0.03 44 1013.7
20260906174510 69 324 1.0 5.0 0.00 0.03 0.03 43 1013.8
20260906174003 69 328 2.0 5.0 0.00 0.03 0.03 44 1013.9
20260906173502 69 319 2.0 5.0 0.00 0.03 0.03 45 1013.9
20260906173001 69 326 1.0 7.0 0.00 0.03 0.03 45 1013.9
20260906172502 68 323 1.0 7.0 0.00 0.03 0.03 45 1013.9
20260906172102 68 326 2.0 6.0 0.00 0.03 0.03 44 1014.0
20260906171604 68 305 2.0 5.0 0.00 0.03 0.03 45 1013.9
20260906171059 68 291 1.0 4.0 0.00 0.03 0.03 47 1013.9
20260906170557 67 320 0.0 3.0 0.00 0.03 0.03 48 1013.9
20260906170058 67 317 1.0 7.0 0.00 0.03 0.03 49 1013.9
20260906165555 66 326 2.0 7.0 0.00 0.03 0.03 57 1013.8
20260906165057 66 309 2.0 5.0 0.00 0.03 0.03 60 1013.9
20260906164554 65 332 0.0 4.0 0.00 0.03 0.03 64 1013.9
20260906164051 65 316 0.0 2.0 0.00 0.03 0.03 68 1013.9
20260906163549 64 316 0.0 1.0 0.00 0.03 0.03 70 1013.9
20260906163107 63 97 0.0 2.0 0.00 0.03 0.03 74 1014.0
20260906162547 62 135 1.0 2.0 0.00 0.03 0.03 78 1014.1
20260906162046 62 143 0.0 1.0 0.00 0.03 0.03 82 1014.1
20260906161546 61 143 0.0 1.0 0.00 0.03 0.03 82 1014.1
20260906161045 61 139 0.0 0.0 0.00 0.03 0.03 82 1014.2
20260906160545 60 140 0.0 0.0 0.00 0.03 0.03 83 1014.1
20260906160045 59 131 0.0 0.0 0.00 0.03 0.03 83 1014.2
20260906155545 59 131 0.0 1.0 0.00 0.03 0.03 83 1014.3
20260906155044 58 131 0.0 1.0 0.00 0.03 0.03 85 1014.3
20260906154544 58 130 0.0 4.0 0.00 0.03 0.03 85 1014.2
20260906154044 58 323 1.0 4.0 0.00 0.03 0.03 86 1014.3
20260906153545 57 64 0.0 0.0 0.00 0.03 0.03 87 1014.2
20260906153050 57 63 0.0 0.0 0.00 0.03 0.03 89 1014.1
20260906152542 57 63 0.0 0.0 0.00 0.03 0.03 90 1014.2
20260906152042 56 63 0.0 0.0 0.00 0.03 0.03 91 1014.1
20260906151542 56 64 0.0 0.0 0.00 0.03 0.03 91 1014.1
20260906151041 56 63 0.0 0.0 0.00 0.03 0.03 92 1014.1
20260906150642 56 39 0.0 0.0 0.00 0.03 0.03 92 1014.0
20260906150043 55 39 0.0 0.0 0.00 0.03 0.03 92 1014.1
20260906145542 55 39 0.0 1.0 0.00 0.03 0.03 93 1014.0
20260906145039 55 319 0.0 0.0 0.00 0.03 0.03 93 1014.0
20260906144539 55 319 0.0 0.0 0.00 0.03 0.03 94 1014.0
20260906144043 55 319 0.0 0.0 0.00 0.03 0.03 93 1013.9
20260906143544 55 319 0.0 3.0 0.00 0.03 0.03 93 1013.9
20260906143045 55 319 0.0 3.0 0.00 0.03 0.03 93 1013.9
20260906142536 54 134 0.0 0.0 0.00 0.03 0.03 93 1013.9
20260906142036 55 134 0.0 2.0 0.00 0.03 0.03 93 1013.6
20260906141535 55 134 0.0 2.0 0.00 0.03 0.03 93 1013.6
20260906141035 55 141 0.0 0.0 0.00 0.03 0.03 93 1013.5
20260906140536 55 141 0.0 0.0 0.00 0.03 0.03 93 1013.5
20260906140038 55 141 0.0 0.0 0.00 0.03 0.03 93 1013.5
20260906135535 55 141 0.0 0.0 0.00 0.03 0.03 93 1013.5
20260906135034 54 141 0.0 0.0 0.00 0.03 0.03 92 1013.4
20260906134537 54 143 0.0 0.0 0.01 0.03 0.03 92 1013.4
20260906134033 54 142 0.0 0.0 0.01 0.03 0.03 92 1013.6
20260906133531 55 142 0.0 0.0 0.01 0.03 0.03 92 1013.3
20260906133031 55 136 0.0 0.0 0.01 0.03 0.03 92 1013.1
20260906132531 55 136 0.0 0.0 0.01 0.03 0.03 92 1013.0
20260906132030 55 136 0.0 0.0 0.01 0.03 0.03 92 1013.0
20260906131530 55 135 0.0 0.0 0.01 0.03 0.03 91 1012.9
20260906131029 55 136 0.0 0.0 0.01 0.03 0.03 91 1013.0
20260906130533 55 135 0.0 0.0 0.01 0.03 0.03 91 1013.0
20260906130030 55 136 0.0 1.0 0.01 0.03 0.03 91 1012.8
20260906125529 55 137 0.0 1.0 0.01 0.03 0.03 91 1012.8
20260906125032 55 141 0.0 0.0 0.01 0.03 0.03 92 1012.7
20260906124528 55 143 0.0 0.0 0.00 0.02 0.02 92 1012.8
20260906124028 55 143 0.0 0.0 0.00 0.02 0.02 92 1013.0
20260906123527 55 143 0.0 0.0 0.00 0.02 0.02 92 1013.2
20260906123027 55 143 0.0 0.0 0.00 0.02 0.02 91 1012.8
20260906122526 55 143 0.0 0.0 0.00 0.02 0.02 91 1012.6
20260906122025 55 143 0.0 0.0 0.00 0.02 0.02 91 1012.7
20260906121525 55 143 0.0 0.0 0.01 0.02 0.02 92 1012.6
20260906121026 55 143 0.0 0.0 0.01 0.02 0.02 91 1012.6
20260906120526 55 143 0.0 0.0 0.01 0.02 0.02 91 1012.6
20260906120024 55 143 0.0 0.0 0.01 0.02 0.02 91 1012.8
20260906115523 55 143 0.0 0.0 0.01 0.02 0.02 91 1012.8
20260906115024 55 143 0.0 1.0 0.02 0.02 0.02 91 1012.7
20260906114522 55 143 0.0 1.0 0.02 0.02 0.02 90 1012.6
20260906114022 55 143 0.0 1.0 0.02 0.02 0.02 90 1012.6
20260906113521 55 141 0.0 1.0 0.02 0.02 0.02 90 1012.4
20260906113021 55 141 0.0 1.0 0.02 0.02 0.02 90 1012.4
20260906112520 55 141 0.0 1.0 0.02 0.02 0.02 89 1012.4
20260906112020 55 141 0.0 1.0 0.02 0.02 0.02 89 1012.2
20260906111519 55 136 0.0 2.0 0.01 0.01 0.01 88 1012.5
20260906111020 55 135 0.0 2.0 0.01 0.01 0.01 88 1012.7
20260906110518 55 142 0.0 0.0 0.01 0.01 0.01 87 1012.2
20260906110018 55 143 0.0 1.0 0.01 0.01 0.01 87 1012.0
20260906105517 55 138 0.0 1.0 0.01 0.01 0.01 86 1012.1
20260906105019 55 138 0.0 0.0 0.00 0.00 0.00 87 1011.8
20260906104516 55 138 0.0 1.0 0.00 0.00 0.00 86 1012.4
20260906104016 55 138 0.0 2.0 0.00 0.00 0.00 86 1012.2
20260906103514 55 138 0.0 2.0 0.00 0.00 0.00 85 1011.7
20260906103013 55 132 0.0 0.0 0.00 0.00 0.00 84 1011.5
20260906102514 56 133 0.0 0.0 0.00 0.00 0.00 83 1011.5
20260906102013 56 132 0.0 0.0 0.00 0.00 0.00 83 1011.7
20260906101513 56 132 0.0 0.0 0.00 0.00 0.00 81 1011.8
20260906101012 55 132 0.0 0.0 0.00 0.00 0.00 82 1011.9
20260906100512 56 132 0.0 0.0 0.00 0.00 0.00 82 1012.1
20260906100012 56 132 0.0 0.0 0.00 0.00 0.00 82 1012.1
20260906095511 56 132 0.0 0.0 0.00 0.00 0.00 82 1012.1
20260906095010 56 132 0.0 0.0 0.00 0.00 0.00 81 1012.2
20260906094515 56 132 0.0 0.0 0.00 0.00 0.00 82 1012.2
20260906094009 55 132 0.0 0.0 0.00 0.00 0.00 82 1012.2
20260906093510 55 133 0.0 0.0 0.00 0.00 0.00 82 1012.2
20260906093012 55 132 0.0 0.0 0.00 0.00 0.00 82 1012.2
20260906092512 56 133 0.0 0.0 0.00 0.00 0.00 81 1012.0
20260906092011 57 134 0.0 0.0 0.00 0.00 0.00 79 1012.0
20260906091507 57 134 0.0 1.0 0.00 0.00 0.00 78 1012.0
20260906091007 57 131 0.0 1.0 0.00 0.00 0.00 77 1011.9
20260906090510 57 154 0.0 1.0 0.00 0.00 0.00 77 1011.8
20260906090007 57 154 0.0 1.0 0.00 0.00 0.00 78 1011.9
20260906085506 56 162 0.0 1.0 0.00 0.00 0.00 80 1011.9
20260906085006 55 147 0.0 1.0 0.00 0.00 0.00 84 1011.8
20260906084509 56 127 0.0 1.0 0.00 0.00 0.00 85 1011.7
20260906084007 56 141 0.0 0.0 0.00 0.00 0.00 85 1011.7
20260906083504 56 141 0.0 1.0 0.00 0.00 0.00 85 1011.8
20260906083004 56 141 0.0 1.0 0.00 0.00 0.00 84 1011.9
20260906082505 56 141 0.0 1.0 0.00 0.00 0.00 84 1011.8
20260906082003 56 141 0.0 1.0 0.00 0.00 0.00 84 1011.5
20260906081500 56 141 0.0 1.0 0.00 0.00 0.00 83 1011.6
20260906081101 56 141 0.0 1.0 0.00 0.00 0.00 82 1011.6
20260906080559 57 141 0.0 1.0 0.00 0.00 0.00 82 1011.5
20260906080100 57 141 0.0 1.0 0.00 0.00 0.00 82 1011.5
20260906075556 57 124 0.0 1.0 0.00 0.00 0.00 80 1011.5
20260906075056 57 108 0.0 1.0 0.00 0.00 0.00 80 1011.5
20260906074559 57 134 0.0 0.0 0.00 0.00 0.00 80 1011.6
20260906074053 58 134 0.0 1.0 0.00 0.00 0.00 80 1011.8
20260906073557 58 134 0.0 1.0 0.00 0.00 0.00 79 1011.8
20260906073051 58 103 0.0 1.0 0.00 0.00 0.00 78 1011.7
20260906072552 58 106 0.0 0.0 0.00 0.00 0.00 78 1011.8
20260906072050 58 105 0.0 0.0 0.00 0.00 0.00 78 1011.8
20260906071550 58 105 0.0 0.0 0.00 0.00 0.00 78 1011.8
20260906071047 58 105 0.0 1.0 0.00 0.00 0.00 79 1012.0
20260906070546 59 106 0.0 1.0 0.00 0.00 0.00 77 1011.9
20260906070045 59 105 0.0 0.0 0.00 0.00 0.00 76 1012.0
20260906065544 59 105 0.0 0.0 0.00 0.02 0.00 76 1012.1
20260906065043 60 105 0.0 0.0 0.00 0.02 0.00 75 1012.2
20260906064541 60 106 0.0 1.0 0.00 0.02 0.00 73 1012.3
20260906064040 60 106 0.0 1.0 0.00 0.02 0.00 72 1012.5
20260906063538 61 330 0.0 2.0 0.00 0.02 0.00 71 1012.6
20260906063038 61 330 0.0 2.0 0.00 0.02 0.00 70 1012.2
20260906062537 61 330 0.0 0.0 0.00 0.02 0.00 70 1012.1
20260906062039 62 330 0.0 1.0 0.00 0.02 0.00 70 1012.1
20260906061539 62 330 0.0 1.0 0.00 0.02 0.00 69 1012.5
20260906061039 62 330 0.0 3.0 0.00 0.02 0.00 68 1012.6
20260906060535 62 330 0.0 3.0 0.00 0.02 0.00 69 1012.4
20260906060036 62 128 0.0 1.0 0.00 0.02 0.00 69 1012.2
20260906055532 62 134 0.0 0.0 0.00 0.02 0.02 70 1012.2
20260906055034 62 134 0.0 2.0 0.00 0.02 0.02 71 1012.5
20260906054531 62 134 0.0 2.0 0.00 0.02 0.02 72 1012.3
20260906054031 61 120 0.0 2.0 0.00 0.02 0.02 72 1012.5
20260906053530 61 148 0.0 2.0 0.00 0.02 0.02 73 1013.0
20260906053030 62 148 0.0 1.0 0.00 0.02 0.02 73 1013.2
20260906052533 61 122 0.0 1.0 0.00 0.02 0.02 74 1013.2
20260906052030 61 127 0.0 2.0 0.00 0.02 0.02 73 1013.9
20260906051529 62 127 0.0 2.0 0.00 0.02 0.02 74 1013.9
20260906051029 61 138 0.0 2.0 0.00 0.02 0.02 71 1013.2
20260906050528 61 150 0.0 0.0 0.00 0.02 0.02 74 1013.0
20260906050028 61 150 0.0 0.0 0.00 0.02 0.02 76 1013.5
20260906045532 61 150 0.0 1.0 0.00 0.02 0.02 76 1013.4
20260906045028 61 153 0.0 1.0 0.00 0.02 0.02 75 1013.1
20260906044532 61 153 0.0 1.0 0.00 0.02 0.02 75 1013.1
20260906044032 61 150 0.0 1.0 0.00 0.02 0.02 75 1012.9
20260906043528 61 152 0.0 0.0 0.00 0.02 0.02 75 1012.8
20260906043027 61 151 0.0 0.0 0.00 0.02 0.02 75 1012.7
20260906042526 61 150 0.0 0.0 0.00 0.02 0.02 76 1012.8
20260906042026 61 150 0.0 0.0 0.00 0.02 0.02 76 1012.8
20260906041538 61 151 0.0 0.0 0.00 0.02 0.02 75 1012.7
20260906041028 61 151 0.0 1.0 0.00 0.02 0.02 75 1012.7
20260906040527 61 150 0.0 1.0 0.00 0.02 0.02 75 1012.8
20260906040026 61 151 0.0 0.0 0.00 0.02 0.02 74 1012.8
20260906035525 61 150 0.0 0.0 0.00 0.02 0.02 74 1012.9
20260906035025 62 151 0.0 0.0 0.00 0.02 0.02 73 1013.0
20260906034530 62 150 0.0 0.0 0.00 0.02 0.02 72 1012.9
20260906034024 62 151 0.0 0.0 0.00 0.02 0.02 70 1012.8
20260906033524 63 151 0.0 0.0 0.00 0.02 0.02 71 1012.8
20260906033025 63 151 0.0 0.0 0.00 0.02 0.02 70 1012.8
20260906032523 63 150 0.0 0.0 0.00 0.02 0.02 70 1012.8
20260906032023 64 152 0.0 0.0 0.00 0.02 0.02 70 1012.8
20260906031524 64 152 0.0 0.0 0.00 0.02 0.02 68 1012.8
20260906031023 64 150 0.0 1.0 0.00 0.02 0.02 67 1012.7
20260906030523 65 152 0.0 1.0 0.00 0.02 0.02 67 1012.6
20260906030023 65 150 0.0 1.0 0.00 0.02 0.02 65 1012.5
20260906025522 66 154 0.0 1.0 0.00 0.02 0.02 63 1012.6
20260906025022 66 154 0.0 1.0 0.00 0.02 0.02 61 1012.6
20260906024522 67 154 0.0 2.0 0.00 0.02 0.02 60 1012.4
20260906024022 68 154 0.0 2.0 0.00 0.02 0.02 59 1012.4
20260906023523 69 207 0.0 1.0 0.00 0.02 0.02 58 1012.3
20260906023022 70 308 0.0 2.0 0.00 0.02 0.02 55 1012.2
20260906022520 70 319 0.0 3.0 0.00 0.02 0.02 51 1012.3
20260906022025 71 319 1.0 3.0 0.00 0.02 0.02 50 1012.3
20260906021520 71 318 1.0 3.0 0.00 0.02 0.02 49 1012.3
20260906021019 71 320 1.0 3.0 0.00 0.02 0.02 48 1012.4
20260906020519 71 326 1.0 4.0 0.00 0.02 0.02 48 1012.4
20260906020020 72 319 1.0 4.0 0.00 0.02 0.02 47 1012.5
20260906015518 72 323 1.0 4.0 0.00 0.02 0.02 45 1012.5
20260906015018 73 323 1.0 4.0 0.00 0.02 0.02 45 1012.4
20260906014522 73 322 1.0 5.0 0.00 0.02 0.02 44 1012.5
20260906014018 73 318 1.0 6.0 0.00 0.02 0.02 43 1012.5
20260906013518 73 316 2.0 7.0 0.00 0.02 0.02 43 1012.6
20260906013017 74 315 2.0 7.0 0.00 0.02 0.02 42 1012.6
20260906012516 74 316 2.0 6.0 0.00 0.02 0.02 42 1012.6
20260906012016 74 324 2.0 5.0 0.00 0.02 0.02 42 1012.6
20260906011516 74 307 1.0 7.0 0.00 0.02 0.02 42 1012.6
20260906011016 74 322 2.0 7.0 0.00 0.02 0.02 41 1012.6
20260906010516 74 327 1.0 7.0 0.00 0.02 0.02 41 1012.6
20260906010016 74 322 3.0 7.0 0.00 0.02 0.02 40 1012.7
20260906005516 75 304 1.0 9.0 0.00 0.02 0.02 40 1012.7
20260906005017 75 311 2.0 9.0 0.00 0.02 0.02 40 1012.7
20260906004516 75 322 2.0 6.0 0.00 0.02 0.02 40 1012.7
20260906004015 75 320 3.0 6.0 0.00 0.02 0.02 40 1012.7
20260906003515 75 316 2.0 6.0 0.00 0.02 0.02 40 1012.7
20260906003014 75 323 2.0 6.0 0.00 0.02 0.02 40 1012.7
20260906002514 75 311 3.0 6.0 0.00 0.02 0.02 39 1012.6
20260906002015 76 340 3.0 6.0 0.00 0.02 0.02 39 1012.6
20260906001514 76 328 1.0 6.0 0.00 0.02 0.02 39 1012.6
20260906001013 76 329 2.0 7.0 0.00 0.02 0.02 39 1012.6
20260906000516 76 332 3.0 7.0 0.00 0.02 0.02 39 1012.7
20260906000013 76 5 1.0 7.0 0.00 0.02 0.02 39 1012.7
20260905235513 76 130 1.0 7.0 0.00 0.02 0.02 38 1012.7
20260905235012 76 307 3.0 6.0 0.00 0.02 0.02 38 1012.7
20260905234513 76 322 2.0 8.0 0.00 0.02 0.02 37 1012.6
20260905234012 76 316 3.0 8.0 0.00 0.02 0.02 38 1012.7
20260905233512 76 301 2.0 4.0 0.00 0.02 0.02 39 1012.7
20260905233010 77 304 1.0 4.0 0.00 0.02 0.02 38 1012.7
20260905232510 77 283 1.0 5.0 0.00 0.02 0.02 38 1012.7
20260905232011 77 318 2.0 5.0 0.00 0.02 0.02 38 1012.7
20260905231508 77 322 1.0 3.0 0.00 0.02 0.02 37 1012.8
20260905231007 77 140 0.0 5.0 0.00 0.02 0.02 38 1012.9
20260905230508 78 311 2.0 5.0 0.00 0.02 0.02 36 1013.0
20260905230007 78 318 2.0 4.0 0.00 0.02 0.02 37 1013.0
20260905225508 78 321 0.0 3.0 0.00 0.02 0.02 36 1013.0
20260905225005 78 285 1.0 4.0 0.00 0.02 0.02 37 1013.0
20260905224515 77 163 0.0 6.0 0.00 0.02 0.02 37 1013.1
20260905224003 77 304 0.0 7.0 0.00 0.02 0.02 37 1013.2
20260905223502 77 325 2.0 7.0 0.00 0.02 0.02 37 1013.3
20260905223002 77 313 1.0 5.0 0.00 0.02 0.02 38 1013.2
20260905222502 77 153 0.0 3.0 0.00 0.02 0.02 36 1013.4
20260905222059 77 333 0.0 2.0 0.00 0.02 0.02 35 1013.4
20260905221600 77 309 1.0 2.0 0.00 0.02 0.02 35 1013.5
20260905221059 77 142 0.0 4.0 0.00 0.02 0.02 36 1013.6
20260905220558 77 139 1.0 4.0 0.00 0.02 0.02 36 1013.6
20260905220100 77 298 1.0 3.0 0.00 0.02 0.02 37 1013.6
20260905215557 77 323 1.0 3.0 0.00 0.07 0.02 37 1013.7
20260905215054 76 45 0.0 4.0 0.00 0.07 0.02 40 1013.9
20260905214556 75 318 1.0 4.0 0.00 0.07 0.02 38 1014.0
20260905214054 76 203 1.0 4.0 0.00 0.07 0.02 40 1014.1
20260905213552 75 344 1.0 4.0 0.00 0.07 0.02 41 1014.2
20260905213052 74 323 2.0 4.0 0.00 0.07 0.02 41 1014.2
20260905212551 74 318 2.0 5.0 0.00 0.07 0.02 43 1014.3
20260905212051 74 311 0.0 5.0 0.00 0.07 0.02 43 1014.4
20260905211550 73 314 1.0 4.0 0.00 0.07 0.02 43 1014.4
20260905211051 74 319 1.0 3.0 0.00 0.07 0.02 42 1014.5
20260905210550 74 330 0.0 3.0 0.00 0.07 0.02 43 1014.5
20260905210050 74 319 1.0 3.0 0.00 0.07 0.02 42 1014.6